Location: Archemont
(49.1579°N, 1.7598°E)
Time: 11:28:15
(UTC+00:00)

Cosmos 2278 Rocket - Pass Details

Date: 03 February 2023
Orbit: 841 x 845 km, 71.0° (Epoch: 25 March)

Event Time Altitude Azimuth Distance (km) Brightness Sun altitude
Rises 19:54:34 0° 332° (NNW) 3,417 5.8 -29.9°
Reaches altitude 10° 19:57:02 10° 334° (NNW) 2,477 5.0 -30.3°
Enters shadow 20:00:50 43° 347° (NNW) 1,177 3.0 -30.9°
